TimeEST,TemperatureF,Dew PointF,Humidity,Sea Level PressureIn,VisibilityMPH,Wind Direction,Wind SpeedMPH,Gust SpeedMPH,PrecipitationIn,Events,Conditions,WindDirDegrees,DateUTC
12:12 AM,35.6,30.2,81,30.59,10.0,North,8.1,-,N/A,,Mostly Cloudy,10,2012-11-19 05:12:00
12:56 AM,36.0,30.0,79,30.58,10.0,North,9.2,-,N/A,,Mostly Cloudy,10,2012-11-19 05:56:00
1:46 AM,35.6,30.2,81,30.56,10.0,North,11.5,-,N/A,,Scattered Clouds,10,2012-11-19 06:46:00
1:56 AM,35.1,30.0,82,30.56,10.0,North,11.5,-,N/A,,Partly Cloudy,10,2012-11-19 06:56:00
2:56 AM,34.0,28.9,82,30.54,10.0,North,6.9,-,N/A,,Clear,10,2012-11-19 07:56:00
3:56 AM,33.1,28.9,85,30.51,9.0,North,8.1,-,N/A,,Clear,10,2012-11-19 08:56:00
4:56 AM,33.1,28.0,82,30.51,8.0,North,10.4,-,N/A,,Clear,360,2012-11-19 09:56:00
5:56 AM,32.0,28.0,85,30.50,8.0,North,9.2,-,N/A,,Clear,360,2012-11-19 10:56:00
6:56 AM,33.1,28.0,82,30.50,7.0,North,10.4,-,N/A,,Clear,10,2012-11-19 11:56:00
7:56 AM,35.1,30.0,82,30.50,8.0,North,10.4,-,N/A,,Scattered Clouds,10,2012-11-19 12:56:00
8:14 AM,35.6,30.2,81,30.49,8.0,North,10.4,-,N/A,,Mostly Cloudy,10,2012-11-19 13:14:00
8:56 AM,37.9,30.0,73,30.48,8.0,North,11.5,-,N/A,,Scattered Clouds,10,2012-11-19 13:56:00
9:39 AM,41.0,32.0,70,30.47,9.0,North,11.5,-,N/A,,Mostly Cloudy,10,2012-11-19 14:39:00
9:56 AM,42.1,32.0,67,30.47,9.0,North,10.4,-,N/A,,Overcast,10,2012-11-19 14:56:00
10:56 AM,46.0,35.1,66,30.43,9.0,NNE,10.4,-,N/A,,Overcast,20,2012-11-19 15:56:00
11:56 AM,48.0,35.1,61,30.41,10.0,North,11.5,-,N/A,,Overcast,10,2012-11-19 16:56:00
12:56 PM,50.0,36.0,59,30.38,10.0,NNE,10.4,-,N/A,,Overcast,20,2012-11-19 17:56:00
1:56 PM,51.1,37.9,61,30.36,10.0,NNE,11.5,-,N/A,,Overcast,30,2012-11-19 18:56:00
2:56 PM,51.1,37.9,61,30.36,10.0,NNE,9.2,-,N/A,,Overcast,30,2012-11-19 19:56:00
3:56 PM,50.0,37.9,63,30.35,10.0,NNE,9.2,-,N/A,,Overcast,30,2012-11-19 20:56:00
4:56 PM,48.0,37.9,68,30.34,10.0,NE,8.1,-,N/A,,Mostly Cloudy,50,2012-11-19 21:56:00
5:54 PM,44.6,37.4,76,30.34,10.0,NNE,4.6,-,N/A,,Scattered Clouds,20,2012-11-19 22:54:00
5:56 PM,45.0,37.0,74,30.34,10.0,NNE,4.6,-,N/A,,Scattered Clouds,20,2012-11-19 22:56:00
6:56 PM,41.0,36.0,82,30.33,10.0,NNE,4.6,-,N/A,,Clear,20,2012-11-19 23:56:00
7:56 PM,39.9,35.1,83,30.31,10.0,North,5.8,-,N/A,,Clear,10,2012-11-20 00:56:00
8:56 PM,39.9,35.1,83,30.29,10.0,North,6.9,-,N/A,,Clear,10,2012-11-20 01:56:00
9:56 PM,37.9,34.0,86,30.28,10.0,North,5.8,-,N/A,,Clear,360,2012-11-20 02:56:00
10:56 PM,37.0,34.0,89,30.26,9.0,North,6.9,-,N/A,,Clear,10,2012-11-20 03:56:00
11:56 PM,36.0,33.1,89,30.26,8.0,North,8.1,-,N/A,,Clear,10,2012-11-20 04:56:00